TimeCDT,TemperatureF,Dew PointF,Humidity,Sea Level PressureIn,VisibilityMPH,Wind Direction,Wind SpeedMPH,Gust SpeedMPH,PrecipitationIn,Events,Conditions,WindDirDegrees,DateUTC
12:16 AM,37.4,33.8,87,29.86,10.0,ENE,8.1,-,N/A,,Drizzle,70,2013-04-18 05:16:00
12:35 AM,37.4,33.8,87,29.85,7.0,ENE,8.1,-,N/A,,Drizzle,60,2013-04-18 05:35:00
12:55 AM,37.4,33.8,87,29.85,4.0,NE,5.8,-,N/A,Rain,Light Rain,50,2013-04-18 05:55:00
1:15 AM,35.6,33.8,93,29.84,4.0,NNE,4.6,-,0.01,,Drizzle,30,2013-04-18 06:15:00
1:35 AM,35.6,33.8,93,29.83,5.0,NNE,5.8,-,0.01,,Drizzle,30,2013-04-18 06:35:00
1:55 AM,35.6,33.8,93,29.83,7.0,NNE,6.9,-,0.01,,Drizzle,20,2013-04-18 06:55:00
2:15 AM,35.6,33.8,93,29.78,5.0,NE,9.2,-,0.01,,Drizzle,40,2013-04-18 07:15:00
2:35 AM,35.6,33.8,93,29.77,4.0,NNE,10.4,16.1,0.01,,Drizzle,30,2013-04-18 07:35:00
2:55 AM,35.6,33.8,93,29.78,5.0,NE,6.9,-,0.01,,Light Drizzle,40,2013-04-18 07:55:00
3:15 AM,35.6,33.8,93,29.78,7.0,NE,4.6,-,N/A,,Overcast,50,2013-04-18 08:15:00
3:35 AM,35.6,33.8,93,29.77,7.0,NE,8.1,-,N/A,,Overcast,40,2013-04-18 08:35:00
3:55 AM,35.6,33.8,93,29.77,7.0,NNE,6.9,-,N/A,,Drizzle,20,2013-04-18 08:55:00
4:15 AM,35.6,33.8,93,29.76,3.0,NNE,8.1,-,N/A,Rain,Light Rain,20,2013-04-18 09:15:00
4:35 AM,35.6,33.8,93,29.74,2.0,NNE,8.1,-,0.02,Rain,Heavy Rain,30,2013-04-18 09:35:00
4:55 AM,35.6,33.8,93,29.74,3.0,North,4.6,-,0.02,,Drizzle,10,2013-04-18 09:55:00
5:15 AM,35.6,33.8,93,29.75,3.0,North,8.1,-,0.01,,Drizzle,350,2013-04-18 10:15:00
5:35 AM,35.6,33.8,93,29.76,7.0,North,6.9,-,0.01,,Light Drizzle,360,2013-04-18 10:35:00
5:55 AM,35.6,33.8,93,29.76,3.0,North,9.2,-,0.01,,Drizzle,360,2013-04-18 10:55:00
6:15 AM,35.6,33.8,93,29.76,4.0,North,10.4,16.1,N/A,Rain,Light Rain,10,2013-04-18 11:15:00
6:35 AM,35.6,33.8,93,29.74,5.0,NNE,12.7,18.4,N/A,,Overcast,20,2013-04-18 11:35:00
6:56 AM,35.6,33.8,93,29.71,10.0,NE,12.7,19.6,N/A,,Scattered Clouds,40,2013-04-18 11:56:00
7:15 AM,35.6,32.0,87,29.71,10.0,NE,9.2,16.1,N/A,,Clear,40,2013-04-18 12:15:00
7:35 AM,35.6,33.8,93,29.68,10.0,NE,12.7,20.7,N/A,,Clear,40,2013-04-18 12:35:00
7:55 AM,35.6,33.8,93,29.71,10.0,NNE,10.4,18.4,N/A,,Scattered Clouds,30,2013-04-18 12:55:00
8:15 AM,35.6,33.8,93,29.69,10.0,NNE,10.4,-,N/A,,Mostly Cloudy,20,2013-04-18 13:15:00
8:35 AM,35.6,33.8,93,29.68,10.0,NNE,12.7,20.7,N/A,,Overcast,20,2013-04-18 13:35:00
8:55 AM,35.6,33.8,93,29.66,10.0,NNE,10.4,-,N/A,,Overcast,20,2013-04-18 13:55:00
9:15 AM,37.4,33.8,87,29.64,10.0,NE,5.8,-,N/A,,Overcast,50,2013-04-18 14:15:00
9:35 AM,37.4,33.8,87,29.65,10.0,NE,5.8,10.4,N/A,,Overcast,50,2013-04-18 14:35:00
9:55 AM,37.4,33.8,87,29.64,10.0,NNE,6.9,-,N/A,,Overcast,30,2013-04-18 14:55:00
10:15 AM,37.4,33.8,87,29.64,10.0,NE,5.8,-,N/A,,Overcast,40,2013-04-18 15:15:00
10:35 AM,37.4,33.8,87,29.66,10.0,NNE,6.9,-,N/A,,Overcast,20,2013-04-18 15:35:00
10:55 AM,37.4,33.8,87,29.64,7.0,NNE,5.8,-,N/A,Rain,Light Rain,20,2013-04-18 15:55:00
11:15 AM,37.4,33.8,87,29.62,10.0,NNE,9.2,-,N/A,Rain,Light Rain,20,2013-04-18 16:15:00
11:36 AM,37.4,33.8,87,29.61,10.0,NE,8.1,16.1,N/A,Rain,Light Rain,40,2013-04-18 16:36:00
11:55 AM,37.4,33.8,87,29.59,10.0,NNE,10.4,-,N/A,,Overcast,30,2013-04-18 16:55:00
12:15 PM,37.4,33.8,87,29.59,10.0,NE,4.6,-,N/A,,Overcast,40,2013-04-18 17:15:00
12:35 PM,37.4,33.8,87,29.58,10.0,NNE,8.1,-,N/A,,Overcast,30,2013-04-18 17:35:00
12:55 PM,37.4,33.8,87,29.57,10.0,NE,6.9,-,N/A,Rain,Rain,40,2013-04-18 17:55:00
1:15 PM,37.4,33.8,87,29.56,10.0,NNE,6.9,-,N/A,,Overcast,30,2013-04-18 18:15:00
1:35 PM,37.4,33.8,87,29.56,1.5,NNE,9.2,-,0.02,Rain,Rain,30,2013-04-18 18:35:00
1:55 PM,37.4,33.8,87,29.55,1.5,NNE,6.9,-,0.03,Rain,Rain,20,2013-04-18 18:55:00
2:15 PM,37.4,33.8,87,29.55,2.0,NNE,6.9,-,0.01,,Heavy Drizzle,20,2013-04-18 19:15:00
2:35 PM,35.6,33.8,93,29.53,1.5,North,5.8,-,0.03,Rain,Rain,10,2013-04-18 19:35:00
2:55 PM,35.6,33.8,93,29.49,1.8,NNE,9.2,-,0.11,Rain,Rain,20,2013-04-18 19:55:00
3:35 PM,35.6,33.8,93,29.51,1.8,North,5.8,-,0.04,Rain,Rain,360,2013-04-18 20:35:00
3:55 PM,35.6,33.8,93,29.50,1.8,North,6.9,-,0.07,Rain,Rain,360,2013-04-18 20:55:00
4:15 PM,35.6,33.8,93,29.49,1.5,North,8.1,-,0.03,Rain,Light Rain,360,2013-04-18 21:15:00
4:35 PM,35.6,33.8,93,29.50,1.8,North,6.9,-,0.03,,Heavy Drizzle,350,2013-04-18 21:35:00
4:55 PM,35.6,33.8,93,29.48,1.2,North,5.8,-,0.04,Rain,Light Rain,360,2013-04-18 21:55:00
5:15 PM,35.6,33.8,93,29.45,1.5,North,10.4,-,0.01,Rain,Light Rain,360,2013-04-18 22:15:00
5:35 PM,35.6,33.8,93,29.46,2.0,North,8.1,-,0.01,Rain,Light Rain,350,2013-04-18 22:35:00
5:55 PM,35.6,33.8,93,29.45,2.0,North,10.4,-,0.01,,Drizzle,360,2013-04-18 22:55:00
6:15 PM,33.8,32.0,93,29.44,1.8,North,10.4,19.6,N/A,Snow,Light Snow,360,2013-04-18 23:15:00
6:35 PM,33.8,32.0,93,29.44,2.5,North,15.0,20.7,N/A,Snow,Light Snow,10,2013-04-18 23:35:00
6:55 PM,33.8,32.0,93,29.44,2.5,North,11.5,20.7,N/A,Snow,Light Snow,360,2013-04-18 23:55:00
7:15 PM,33.8,30.2,87,29.44,1.8,NNW,6.9,-,N/A,Snow,Light Snow,330,2013-04-19 00:15:00
7:35 PM,33.8,30.2,87,29.44,1.0,North,10.4,16.1,0.01,Snow,Light Snow,350,2013-04-19 00:35:00
7:55 PM,33.8,30.2,87,29.44,2.0,NNW,6.9,-,0.01,,Overcast,330,2013-04-19 00:55:00
8:15 PM,33.8,30.2,87,29.45,2.0,NW,10.4,-,N/A,Snow,Light Snow,320,2013-04-19 01:15:00
8:35 PM,33.8,30.2,87,29.45,1.5,NW,8.1,-,0.01,Snow,Light Snow,310,2013-04-19 01:35:00
8:55 PM,33.8,30.2,87,29.46,1.5,NW,8.1,-,0.02,Snow,Light Snow,310,2013-04-19 01:55:00
9:15 PM,33.8,30.2,87,29.46,1.5,NW,8.1,-,N/A,Snow,Light Snow,310,2013-04-19 02:15:00
9:35 PM,33.8,30.2,87,29.46,1.2,NW,8.1,-,0.01,Snow,Light Snow,320,2013-04-19 02:35:00
9:55 PM,33.8,30.2,87,29.46,2.5,NW,11.5,18.4,0.02,Snow,Light Snow,310,2013-04-19 02:55:00
10:35 PM,33.8,30.2,87,29.44,2.5,NNW,11.5,18.4,0.01,Snow,Light Snow,330,2013-04-19 03:35:00
10:55 PM,33.8,30.2,87,29.43,1.5,NW,11.5,16.1,0.01,Snow,Light Snow,320,2013-04-19 03:55:00
11:15 PM,32.0,30.2,93,29.42,1.5,NW,11.5,17.3,0.01,Snow,Light Snow,320,2013-04-19 04:15:00
11:35 PM,32.0,30.2,93,29.42,1.8,NW,10.4,18.4,0.01,Snow,Light Snow,320,2013-04-19 04:35:00
11:55 PM,32.0,30.2,93,29.42,2.5,NW,12.7,20.7,0.01,Snow,Light Snow,310,2013-04-19 04:55:00